TimeGMT,TemperatureF,Dew PointF,Humidity,Sea Level PressureIn,VisibilityMPH,Wind Direction,Wind SpeedMPH,Gust SpeedMPH,PrecipitationIn,Events,Conditions,WindDirDegrees,DateUTC
5:50 AM,39.2,33.8,81,29.56,-9999.0,SW,15.0,-,N/A,,Clear,220,2013-01-26 05:50:00
6:20 AM,39.2,33.8,81,29.56,6.2,SW,15.0,-,N/A,,Partly Cloudy,220,2013-01-26 06:20:00
6:50 AM,39.2,33.8,81,29.56,-9999.0,SW,15.0,-,N/A,,Clear,220,2013-01-26 06:50:00
7:20 AM,39.2,33.8,81,29.56,6.2,SW,15.0,-,N/A,,Partly Cloudy,230,2013-01-26 07:20:00
7:50 AM,39.2,33.8,81,29.56,6.2,SW,13.8,-,N/A,,Partly Cloudy,220,2013-01-26 07:50:00
8:20 AM,39.2,33.8,81,29.56,6.2,SW,12.7,-,N/A,,Partly Cloudy,220,2013-01-26 08:20:00
8:50 AM,39.2,33.8,81,29.56,6.2,SSW,11.5,-,N/A,,Partly Cloudy,210,2013-01-26 08:50:00
9:20 AM,39.2,33.8,81,29.59,6.2,SSW,12.7,-,N/A,,Partly Cloudy,210,2013-01-26 09:20:00
9:50 AM,39.2,35.6,87,29.56,6.2,SSW,11.5,-,N/A,,Partly Cloudy,210,2013-01-26 09:50:00
10:20 AM,41.0,35.6,81,29.56,6.2,SSW,13.8,-,N/A,,Scattered Clouds,200,2013-01-26 10:20:00
10:50 AM,41.0,35.6,81,29.56,6.2,SSW,11.5,-,N/A,,Partly Cloudy,210,2013-01-26 10:50:00
11:20 AM,42.8,37.4,81,29.53,6.2,SSW,10.4,-,N/A,,Partly Cloudy,210,2013-01-26 11:20:00
11:50 AM,42.8,37.4,81,29.50,6.2,SSW,9.2,-,N/A,,Partly Cloudy,210,2013-01-26 11:50:00
12:20 PM,44.6,37.4,76,29.47,6.2,South,13.8,-,N/A,,Mostly Cloudy,190,2013-01-26 12:20:00
12:50 PM,44.6,37.4,76,29.44,6.2,South,15.0,-,N/A,,Mostly Cloudy,180,2013-01-26 12:50:00
1:20 PM,44.6,39.2,81,29.39,6.2,South,19.6,-,N/A,Rain,Light Rain,180,2013-01-26 13:20:00
1:50 PM,44.6,41.0,87,29.36,6.2,South,24.2,-,N/A,Rain,Light Rain,190,2013-01-26 13:50:00
2:20 PM,44.6,41.0,87,29.33,6.2,South,20.7,-,N/A,,Mostly Cloudy,180,2013-01-26 14:20:00
2:50 PM,46.4,42.8,87,29.30,6.2,South,23.0,-,N/A,,Mostly Cloudy,180,2013-01-26 14:50:00
3:20 PM,46.4,42.8,87,29.24,6.2,South,26.5,-,N/A,Rain,Light Rain,190,2013-01-26 15:20:00
3:50 PM,46.4,42.8,87,29.24,6.2,South,23.0,-,N/A,Rain,Light Rain,190,2013-01-26 15:50:00
4:20 PM,48.2,42.8,82,29.21,6.2,SSW,24.2,-,N/A,Rain,Light Rain,200,2013-01-26 16:20:00